Theta_e
312 312 312 312 313 314 315 316 316 317 317 316 316 316 317 319 320 323 328 330 331 338 344 353 353 353 352 352 353 354 359 351 351 352 352 348 350 348 350 352 351 353 358 354 353
311 312 312 312 312 313 315 315 316 316 317 317 316 316 317 318 321 325 331 331 336 340 352 354 352 351 351 350 349 351 353 349 347 348 350 349 349 351 351 352 352 358 357 355 354
309 310 311 312 312 313 314 315 315 316 316 317 317 317 317 318 324 333 331 333 337 343 352 352 350 350 351 347 347 350 350 346 347 347 347 349 347 351 349 352 351 358 357 355 355
309 309 309 311 311 312 313 314 315 315 316 317 318 318 317 317 337 335 335 336 336 346 351 351 349 352 351 351 348 349 346 347 345 347 347 350 350 349 347 346 349 352 356 355 354
313 311 310 310 311 311 312 314 315 315 315 316 317 318 317 327 329 332 334 335 336 341 352 350 353 347 352 351 349 349 346 345 346 346 348 348 348 350 348 348 349 352 352 356 356
316 316 314 312 311 311 312 313 314 315 315 316 317 318 318 328 331 329 333 332 337 347 351 351 353 350 349 347 344 350 347 347 344 348 346 349 349 351 350 349 350 352 351 352 355
315 316 316 316 314 312 311 312 314 315 316 316 316 317 323 328 329 333 335 335 340 346 351 352 350 351 353 352 350 350 350 345 348 348 350 348 352 353 350 350 351 352 350 351 353
312 313 315 316 316 315 312 312 313 315 316 316 316 316 326 325 326 329 335 338 340 344 347 352 351 351 350 349 352 349 350 357 350 349 350 348 356 350 350 351 351 351 351 351 350
309 311 312 314 315 317 314 312 312 314 316 316 317 319 327 325 324 329 337 337 339 343 345 350 352 352 352 352 354 352 353 353 353 350 351 349 356 350 351 350 351 351 351 351 352
309 310 310 311 313 315 316 313 313 315 317 316 325 327 325 326 325 325 337 339 340 342 344 347 348 350 353 353 362 359 356 354 355 353 349 350 351 350 350 350 351 352 351 351 352
308 309 309 310 311 314 316 314 324 323 324 324 324 325 326 325 325 325 336 340 340 342 346 345 348 350 350 352 351 352 352 354 353 351 351 350 350 350 349 350 350 351 352 352 351
309 309 309 310 310 312 315 318 321 322 325 327 324 325 325 325 325 327 334 339 339 343 343 345 348 346 349 349 352 352 355 351 350 350 351 349 350 348 348 348 348 350 350 353 351
309 309 309 309 311 312 315 321 320 319 324 326 327 325 324 326 326 326 332 335 337 340 341 343 345 344 348 350 351 351 350 349 348 350 351 351 353 352 349 346 346 347 349 351 353
308 309 309 310 314 321 321 321 320 320 326 328 327 326 324 325 326 326 329 332 335 339 338 339 339 342 345 348 349 349 348 348 347 348 348 350 354 345 351 348 348 347 347 348 354
308 309 309 309 316 319 322 319 318 323 330 330 329 327 324 325 327 326 327 330 333 336 336 337 338 338 344 345 343 349 348 348 348 348 347 345 351 348 348 348 346 347 346 347 352
307 308 309 314 311 316 318 320 321 327 329 331 329 328 327 325 325 327 327 329 331 333 336 336 336 337 340 342 341 345 348 347 348 345 348 349 347 350 350 347 344 345 347 346 347
307 308 309 309 318 319 318 320 325 328 329 331 330 330 328 326 326 328 327 329 331 332 334 337 336 337 337 341 341 344 345 347 348 350 353 351 350 349 347 346 346 343 345 347 347
307 308 309 311 313 317 320 323 328 329 329 331 331 330 329 328 327 327 328 327 329 330 333 337 338 336 339 339 340 343 343 346 351 352 355 352 354 347 343 341 342 342 344 346 346
307 313 313 312 311 317 321 324 328 330 331 330 331 331 329 329 328 327 329 329 328 329 334 335 337 337 338 339 339 340 343 342 343 345 346 354 351 346 345 343 342 340 342 347 346
308 316 320 319 316 318 322 324 327 329 331 330 331 331 332 330 329 328 328 329 329 329 330 334 335 337 337 337 340 340 346 352 347 349 349 346 350 352 349 344 340 342 339 344 347
309 321 321 319 316 318 322 324 326 326 329 329 330 331 331 332 330 329 328 330 329 329 332 332 333 334 336 337 339 340 348 347 347 349 349 352 352 346 343 340 340 340 338 339 348
318 324 324 319 318 318 321 323 325 327 329 329 329 329 331 332 332 331 330 330 330 330 330 330 331 333 335 336 337 338 339 345 352 349 342 348 346 344 340 338 337 338 337 339 341
320 322 323 320 319 320 321 322 323 326 328 329 328 329 330 331 333 334 332 331 330 330 329 329 330 331 331 332 333 335 336 338 339 338 343 344 347 341 339 341 339 335 336 341 343
320 327 323 321 319 321 322 323 322 323 327 328 329 329 329 330 331 334 333 331 330 330 328 330 329 330 330 331 333 335 337 337 336 339 343 344 345 344 339 340 339 336 338 339 344
317 325 326 325 322 322 323 325 324 324 326 327 329 329 329 330 331 332 332 331 330 327 327 329 329 329 329 330 330 335 336 335 335 335 339 342 341 345 340 341 336 335 336 336 340
322 324 324 327 326 322 320 325 326 325 327 328 328 329 329 330 331 333 332 332 330 329 328 328 328 329 329 329 330 332 332 331 333 333 333 334 335 337 339 337 335 334 335 334 338
320 320 321 324 326 326 324 323 325 326 325 327 327 328 330 329 330 332 332 332 332 331 329 329 328 328 329 330 330 330 331 331 331 331 331 332 333 333 338 339 335 335 340 340 339
Wind_Speed
5 5 5 6 5 4 4 4 4 5 5 5 6 6 6 7 6 7 4 6 8 6 3 2 6 8 6 10 11 25 6 7 9 4 12 11 14 8 13 10 9 2 23 29 27
6 6 6 7 7 6 5 5 5 5 5 5 6 7 7 8 9 13 12 10 8 4 4 6 6 8 12 10 7 5 1 6 7 4 12 6 12 9 5 13 11 22 24 28 25
7 6 7 6 8 7 6 6 6 6 6 5 6 7 7 8 9 5 13 9 5 3 6 9 7 11 14 4 17 6 4 9 15 12 12 11 8 14 6 10 16 27 24 31 26
8 7 7 7 7 8 7 6 6 7 6 6 6 7 7 6 2 4 9 9 7 7 5 8 8 11 8 8 15 6 10 9 11 3 9 14 13 12 14 8 11 19 27 27 24
8 8 8 9 8 8 8 7 7 7 6 6 6 6 6 8 10 6 10 10 8 6 8 9 7 10 10 11 20 7 9 2 7 4 15 5 10 7 13 9 12 18 20 26 23
9 9 9 9 9 8 8 8 8 6 7 6 5 5 6 13 3 4 10 11 9 8 10 8 11 11 17 8 3 21 5 13 7 5 5 4 11 12 8 10 15 17 17 19 24
10 10 10 9 10 9 8 8 8 7 6 7 5 6 9 17 5 5 10 12 11 10 12 6 5 10 15 11 17 9 9 7 6 3 3 6 7 6 16 12 14 16 16 16 20
11 11 11 11 10 10 9 8 7 6 5 6 5 5 10 11 11 12 11 12 13 12 12 8 5 8 23 21 14 9 10 7 17 5 6 4 7 8 16 15 13 15 13 15 14
12 12 12 11 11 10 10 7 6 5 3 4 3 5 16 13 17 13 16 16 14 13 11 10 8 14 10 7 5 8 2 8 11 14 4 5 4 7 16 16 18 18 16 16 16
11 12 12 11 11 10 9 6 5 5 3 5 7 7 21 19 14 21 18 16 17 14 13 12 11 13 15 7 3 8 4 13 10 7 8 8 11 13 18 17 19 20 21 21 22
11 11 11 11 10 9 7 4 4 5 14 16 15 15 2 14 16 21 19 18 17 17 15 17 12 15 10 3 11 7 2 14 6 8 1 7 9 10 7 19 16 21 25 24 23
12 11 11 10 9 8 7 6 9 7 10 23 22 20 14 10 11 18 20 21 21 17 18 16 15 20 7 6 6 8 14 9 3 6 5 10 12 13 11 16 19 22 22 29 26
12 10 10 9 7 7 8 11 8 7 9 18 27 26 20 10 18 21 25 26 18 19 19 19 20 15 12 10 11 17 12 2 10 2 11 11 17 18 14 17 17 16 19 28 34
12 10 9 5 1 3 8 7 9 4 6 15 26 24 24 18 21 21 26 27 18 20 19 18 22 18 12 13 18 13 10 7 7 9 10 3 11 10 9 6 10 12 19 19 37
13 10 7 6 3 3 1 1 3 4 6 8 21 8 23 24 7 26 27 28 23 20 17 18 20 19 12 13 8 3 5 7 13 13 12 16 11 4 8 10 14 17 6 8 36
13 12 7 4 8 8 3 3 2 6 11 8 10 12 21 29 25 16 26 26 27 22 20 19 21 17 20 11 16 13 8 9 14 12 12 16 14 11 2 7 5 30 8 3 5
14 13 11 13 8 5 6 7 6 10 15 12 16 15 19 20 22 20 20 22 21 20 22 22 21 18 19 11 16 17 13 11 11 8 4 15 14 8 6 18 17 3 8 5 4
13 14 13 14 11 6 6 9 11 13 25 10 15 16 20 21 21 22 20 21 23 26 16 18 17 22 11 18 17 17 17 11 16 4 5 7 7 7 26 2 4 11 12 9 4
12 9 12 10 17 10 14 12 10 18 15 19 11 16 16 19 14 24 19 20 22 24 23 17 20 17 21 16 17 20 20 10 22 7 9 8 19 27 7 21 11 5 10 17 10
11 7 14 9 14 14 11 20 17 23 12 16 11 12 16 20 23 21 20 19 22 25 29 23 19 20 22 20 17 21 5 4 9 14 13 13 5 2 9 17 5 34 7 12 15
7 6 13 12 15 17 14 20 22 30 15 8 12 14 14 15 22 19 23 18 22 22 22 23 22 17 17 13 18 13 8 4 1 10 2 6 2 8 5 3 13 24 4 5 15
7 8 12 16 13 16 15 23 24 25 12 12 16 18 17 14 16 20 19 19 21 24 25 24 19 15 17 17 14 18 18 21 14 7 7 10 5 23 12 10 19 38 14 10 6
7 12 9 16 8 13 18 22 27 24 22 8 16 15 17 11 15 15 18 22 17 16 19 19 18 17 15 15 16 13 16 19 17 17 16 8 6 7 14 16 21 9 7 8 5
7 4 8 18 22 19 17 19 21 29 26 17 15 18 14 13 16 14 11 16 17 14 4 21 20 17 14 16 15 18 17 17 19 14 13 7 4 16 17 12 22 15 11 7 8
7 9 8 8 15 18 19 20 19 21 27 18 15 15 9 14 16 16 11 15 11 8 5 14 18 20 21 22 19 14 16 16 16 19 18 20 31 28 14 14 23 35 15 7 8
8 11 17 19 17 19 18 20 19 18 20 17 19 12 13 16 16 14 11 12 14 11 12 16 15 16 20 19 19 15 11 9 15 13 14 16 16 2 28 18 11 14 32 6 15
10 11 13 12 13 13 14 19 18 15 20 22 20 15 17 20 16 13 12 19 17 14 16 16 14 16 16 17 15 16 13 14 16 11 11 11 13 9 9 16 25 26 5 18 14
Wind_Direction
335 331 332 327 334 321 316 312 308 298 290 282 279 279 280 278 274 272 273 247 240 273 268 186 266 255 251 264 225 202 198 109 124 245 118 121 97 74 111 109 67 115 144 154 156
330 326 326 320 322 319 312 306 303 293 289 281 279 277 280 284 277 265 254 261 246 244 168 220 237 263 251 219 20 311 239 126 158 164 121 130 89 142 151 133 112 97 130 149 152
324 322 318 316 316 316 312 303 300 293 289 281 274 273 275 283 300 246 228 234 226 191 206 283 288 284 272 295 173 229 231 81 93 145 110 110 96 109 46 98 145 130 141 152 152
319 320 315 310 308 311 311 302 295 295 284 282 270 268 266 281 298 183 197 207 200 171 245 266 265 4 344 280 157 271 46 86 98 66 106 117 78 68 66 58 116 135 148 155 161
317 315 312 309 304 306 308 302 290 290 287 275 271 262 262 261 258 267 199 207 206 195 235 220 328 66 219 289 42 318 102 115 99 126 100 132 101 58 88 93 124 140 157 161 165
308 308 309 308 305 303 302 299 292 281 283 273 261 255 260 249 198 214 212 206 204 207 220 227 240 195 236 86 7 263 358 123 154 142 130 119 128 118 128 120 135 147 166 176 169
302 301 301 303 302 301 298 294 290 284 274 269 252 250 255 229 190 219 205 210 204 220 237 232 290 332 342 318 189 245 344 171 107 112 95 304 360 42 138 142 150 161 171 181 185
299 297 294 297 296 297 294 292 289 281 263 259 246 234 252 239 235 212 210 218 219 230 260 276 244 266 120 260 265 223 21 51 302 290 113 148 244 245 148 153 165 169 178 179 193
305 297 294 292 293 291 290 289 286 279 246 222 208 239 257 212 219 215 208 213 218 227 243 280 262 268 273 270 340 25 329 268 267 255 194 213 187 195 166 176 176 182 182 186 189
306 303 301 296 291 288 287 290 278 259 242 191 214 249 251 228 220 206 205 209 212 221 232 242 249 249 242 205 200 183 194 246 179 262 189 229 236 198 187 193 186 189 186 188 185
308 306 302 299 293 286 282 273 292 236 212 215 203 208 47 217 198 197 199 206 209 223 224 217 235 251 226 119 217 234 228 268 215 177 212 259 263 260 211 194 203 196 189 189 194
310 309 304 299 293 277 257 234 20 327 295 237 242 237 256 184 186 196 195 204 206 218 224 239 219 252 83 204 297 260 241 255 305 99 270 266 269 275 235 215 222 201 201 188 189
310 310 306 303 302 283 260 242 303 317 270 264 223 225 216 194 213 207 198 206 209 221 225 234 236 220 188 203 215 244 240 98 303 232 253 251 269 270 226 228 234 239 210 198 185
310 311 306 299 174 230 261 274 254 284 275 249 203 220 218 207 234 223 203 208 224 223 231 243 247 256 200 241 224 257 94 274 275 284 273 198 271 275 179 214 201 218 219 218 182
307 306 300 283 240 199 49 40 202 233 272 169 170 181 199 196 218 206 201 211 222 221 230 235 239 251 237 231 260 201 207 227 259 270 284 271 240 190 150 214 9 291 56 239 182
302 298 284 299 251 211 277 250 190 227 243 140 137 201 196 205 231 208 204 207 227 240 234 251 247 232 256 211 235 190 178 224 256 256 253 348 281 69 77 133 152 265 119 310 233
297 287 268 236 182 162 248 202 209 233 238 158 168 195 210 197 215 227 192 197 216 222 235 235 242 248 229 262 237 224 237 255 244 225 272 31 343 303 273 176 203 244 134 141 276
294 282 263 240 206 216 198 215 235 212 245 149 183 190 206 206 208 215 195 213 209 231 225 228 224 234 180 232 246 242 248 250 266 244 333 49 211 269 298 64 151 201 165 134 195
301 300 266 219 205 186 212 215 214 241 201 237 179 184 202 218 206 224 203 215 217 219 233 230 230 207 231 206 243 243 239 271 276 233 255 165 239 187 307 5 342 128 164 161 145
308 269 247 209 203 187 219 235 232 255 316 303 213 219 217 202 209 203 204 223 224 213 231 246 262 220 205 206 216 243 31 28 322 290 250 258 88 39 10 70 329 284 13 154 145
291 232 147 168 169 204 220 228 241 268 296 274 284 274 227 232 204 214 216 218 210 222 213 243 257 270 220 191 215 217 123 114 345 268 276 351 48 355 80 114 278 286 128 45 148
273 256 176 171 188 217 227 236 244 260 218 254 272 284 281 256 224 213 232 215 207 208 213 226 249 256 215 201 216 250 236 193 214 170 185 197 212 203 146 154 249 262 41 46 12
254 211 180 187 220 225 227 239 244 256 257 215 243 253 280 279 269 248 208 238 215 204 220 207 236 255 250 229 193 220 247 264 232 251 241 227 138 8 178 254 235 98 106 122 74
276 202 164 210 237 263 240 221 237 241 259 244 242 249 244 267 265 267 222 233 209 185 290 224 223 232 246 241 202 209 222 238 254 260 281 337 291 24 327 323 334 348 106 91 135
241 251 326 184 223 235 255 260 223 233 233 238 250 253 242 250 238 249 219 225 149 120 249 231 219 232 233 266 273 219 216 221 250 275 284 190 247 186 175 270 23 318 307 105 133
283 315 341 301 261 205 229 253 262 229 237 209 246 236 246 261 254 246 232 237 171 167 225 215 235 239 248 250 260 263 264 261 217 240 265 280 297 274 148 132 111 275 286 19 59
334 314 289 285 280 274 217 232 247 266 227 234 213 237 241 240 283 344 338 292 172 199 199 221 216 236 240 235 257 258 250 251 263 255 262 254 266 292 164 154 144 241 11 39 25